Concord, NC

12:52 AM EST on January 21, 2017 (GMT -0500)
Concord

Weather History for KJQF - October, 2013

Change the Weather History Date:

Saturday, October 19, 2013

  Actual Average (KCLT) Record (KCLT)
Temperature  
Mean Temperature 57 °F -  
Max Temperature 64 °F 69 °F 89 °F (2016)
Min Temperature 50 °F 46 °F 30 °F (2009)
Degree Days  
Heating Degree Days 8    
Growing Degree Days 7 (Base 50)    
Moisture  
Dew Point 55 °F    
Average Humidity 90    
Maximum Humidity 100    
Minimum Humidity 68    
Precipitation  
Precipitation 0.00 in - - ()
Sea Level Pressure  
Sea Level Pressure 29.97 in    
Wind  
Wind Speed 0 mph (WSW)    
Max Wind Speed 6 mph    
Max Gust Speed -    
Visibility 8 miles    
Events Fog , Rain    
Averages and records for this station are not official NWS values.
T = Trace of Precipitation, MM = Missing Value Source: NWS Daily Summary

Daily Weather History Graph

Daily Weather History Graph

Search for Another Location

Airport or City:

Trip Planner

Search our weather history database for the weather conditions in past years. The results will help you decide how hot, cold, wet, or windy it might be!

Date:

Astronomy

Oct. 19, 2013 Rise Set
Actual Time 7:32 AM EDT 6:42 PM EDT
Civil Twilight 7:06 AM EDT 7:07 PM EDT
Nautical Twilight 6:37 AM EDT 7:37 PM EDT
Astronomical Twilight 6:07 AM EDT 8:06 PM EDT
Moon 7:11 PM EDT (10/19) 8:06 AM EDT (10/19)
Length of Visible Light 12h 00m
Length of Day
11h 09m
Waxing Gibbous, 99% of the Moon is Illuminated
Oct 19
Waxing Gibbous
Oct 26
Last Quarter
Nov 3
New
Nov 10
First Quarter
Nov 17
Full

Hourly Weather History & Observations

Time (EDT) Temp. Dew Point Humidity Pressure Visibility Wind Dir Wind Speed Gust Speed Precip Events Conditions
12:15 AM 55.4 °F 53.6 °F 94% 30.01 in 10.0 mi Calm Calm - N/A   Clear
12:35 AM 55.4 °F 53.6 °F 94% 30.01 in 10.0 mi Calm Calm - N/A   Scattered Clouds
12:55 AM 55.4 °F 53.6 °F 94% 30.02 in 10.0 mi Calm Calm - N/A   Mostly Cloudy
1:15 AM 55.4 °F 53.6 °F 94% 30.01 in 10.0 mi Calm Calm - N/A   Mostly Cloudy
1:35 AM 55.4 °F 53.6 °F 94% 30.01 in 10.0 mi Calm Calm - N/A   Overcast
1:55 AM 57.2 °F 53.6 °F 88% 29.99 in 10.0 mi Calm Calm - N/A   Overcast
2:15 AM 59.0 °F 53.6 °F 82% 30.00 in 10.0 mi Calm Calm - N/A Rain Light Rain
2:35 AM 59.0 °F 55.4 °F 88% 30.00 in 10.0 mi Calm Calm - N/A   Light Drizzle
2:55 AM 57.2 °F 55.4 °F 94% 29.99 in 10.0 mi Calm Calm - N/A   Overcast
3:15 AM 55.4 °F 53.6 °F 94% 29.99 in 10.0 mi Calm Calm - N/A   Scattered Clouds
3:35 AM 55.4 °F 55.4 °F 100% 29.98 in 10.0 mi Calm Calm - N/A   Mostly Cloudy
3:55 AM 57.2 °F 55.4 °F 94% 29.98 in 10.0 mi Calm Calm - N/A   Mostly Cloudy
4:15 AM 55.4 °F 55.4 °F 100% 29.97 in 10.0 mi Calm Calm - N/A   Overcast
4:35 AM 57.2 °F 55.4 °F 94% 29.98 in 10.0 mi Calm Calm - N/A   Overcast
4:55 AM 59.0 °F 55.4 °F 88% 29.98 in 10.0 mi Calm Calm - N/A   Overcast
5:15 AM 59.0 °F 55.4 °F 88% 29.97 in 10.0 mi Calm Calm - N/A   Overcast
5:35 AM 57.2 °F 55.4 °F 94% 29.97 in 10.0 mi Calm Calm - N/A   Overcast
5:55 AM 57.2 °F 55.4 °F 94% 29.97 in 10.0 mi Calm Calm - N/A   Mostly Cloudy
6:15 AM 59.0 °F 55.4 °F 88% 29.97 in 10.0 mi Calm Calm - N/A Rain Light Rain
6:35 AM 57.2 °F 55.4 °F 94% 29.97 in 10.0 mi Calm Calm - N/A   Overcast
6:55 AM 59.0 °F 55.4 °F 88% 29.97 in 10.0 mi Calm Calm - N/A   Overcast
7:15 AM 59.0 °F 55.4 °F 88% 29.96 in 10.0 mi Calm Calm - N/A Rain Light Rain
7:35 AM 57.2 °F 55.4 °F 94% 29.96 in 10.0 mi Calm Calm - N/A Rain Light Rain
7:55 AM 57.2 °F 55.4 °F 94% 29.97 in 3.0 mi Calm Calm - N/A   Overcast
8:55 AM 59.0 °F 57.2 °F 94% 29.98 in 3.0 mi Calm Calm - N/A   Overcast
9:55 AM 60.8 °F 57.2 °F 88% 29.98 in 3.0 mi Calm Calm - N/A   Overcast
10:55 AM 60.8 °F 59.0 °F 94% 29.97 in 3.0 mi Calm Calm - N/A   Overcast
11:55 AM 62.6 °F 60.8 °F 94% 29.96 in 3.0 mi Calm Calm - N/A   Overcast
12:55 PM 64.4 °F 60.8 °F 88% 29.94 in 3.0 mi Calm Calm - N/A   Overcast
1:55 PM 64.4 °F 59.0 °F 83% 29.93 in 3.0 mi Calm Calm - N/A   Scattered Clouds
2:55 PM 64.4 °F 57.2 °F 77% 29.90 in 7.0 mi Calm Calm - N/A   Overcast
3:55 PM 64.4 °F 57.2 °F 77% 29.92 in 7.0 mi West 4.6 mph - N/A   Overcast
4:55 PM 64.4 °F 55.4 °F 73% 29.92 in 7.0 mi SSW 5.8 mph - N/A   Overcast
5:55 PM 64.4 °F 53.6 °F 68% 29.91 in 10.0 mi WSW 3.5 mph - N/A   Overcast
6:55 PM 62.6 °F 53.6 °F 72% 29.92 in 10.0 mi Calm Calm - N/A   Scattered Clouds
7:55 PM 55.4 °F 53.6 °F 94% 29.94 in 10.0 mi Calm Calm - N/A   Clear
8:55 PM 57.2 °F 53.6 °F 88% 29.95 in 10.0 mi Calm Calm - N/A   Clear
9:15 PM 55.4 °F 53.6 °F 94% 29.96 in 10.0 mi Calm Calm - N/A   Clear
9:35 PM 53.6 °F 51.8 °F 94% 29.96 in 10.0 mi Calm Calm - N/A   Clear
9:55 PM 55.4 °F 53.6 °F 94% 29.96 in 10.0 mi Calm Calm - N/A   Clear
10:15 PM 53.6 °F 51.8 °F 94% 29.97 in 7.0 mi Calm Calm - N/A   Clear
10:55 PM 51.8 °F 50.0 °F 94% 29.96 in 1.5 mi Calm Calm - N/A   Mist
11:15 PM 51.8 °F 50.0 °F 94% 29.96 in 3.0 mi Calm Calm - N/A   Clear
11:35 PM 50.0 °F 50.0 °F 100% 29.97 in 0.8 mi Calm Calm - N/A   Mist
11:55 PM 50.0 °F 50.0 °F 100% 29.97 in 0.5 mi Calm Calm - N/A Fog Fog